Time,TemperatureF,DewpointF,PressureIn,WindDirection,WindDirectionDegrees,WindSpeedMPH,WindSpeedGustMPH,Humidity,HourlyPrecipIn,Conditions,Clouds,dailyrainin,SoftwareType,DateUTC
2013-06-24 00:01:00,73.8,64.3,30.01,NW,315,2.2,3.1,72,2.59,,,0.18,WUHU216HW,2013-06-24 04:01:00,
2013-06-24 00:03:00,73.8,64.3,30.01,West,270,2.7,2.7,72,2.59,,,0.18,WUHU216HW,2013-06-24 04:03:00,
2013-06-24 00:06:00,73.8,64.3,30.01,West,270,2.7,2.7,72,2.59,,,0.18,WUHU216HW,2013-06-24 04:06:00,
2013-06-24 00:11:00,73.8,64.3,30.01,West,270,2.7,2.7,72,2.59,,,0.18,WUHU216HW,2013-06-24 04:11:00,
2013-06-24 00:33:00,74.2,64.6,30.01,SW,225,0.0,0.0,72,2.59,,,0.18,WUHU216HW,2013-06-24 04:33:00,
2013-06-24 00:38:00,74.0,64.5,30.01,WSW,248,1.1,1.8,72,2.59,,,0.18,WUHU216HW,2013-06-24 04:38:00,
2013-06-24 00:43:00,74.0,64.5,30.01,SW,225,0.7,1.8,72,2.59,,,0.18,WUHU216HW,2013-06-24 04:43:00,
2013-06-24 01:00:00,73.8,64.3,30.01,SW,225,2.0,2.0,72,2.59,,,0.18,WUHU216HW,2013-06-24 05:00:00,
2013-06-24 01:05:00,73.8,64.3,30.01,WSW,248,1.3,2.0,72,2.59,,,0.18,WUHU216HW,2013-06-24 05:05:00,
2013-06-24 01:10:00,73.8,64.3,30.01,WSW,248,1.3,2.0,72,2.59,,,0.18,WUHU216HW,2013-06-24 05:10:00,
2013-06-24 01:30:00,73.4,64.4,30.01,WNW,293,1.1,1.1,73,2.59,,,0.36,WUHU216HW,2013-06-24 05:30:00,
2013-06-24 01:35:00,73.3,64.2,30.01,SW,225,0.0,1.3,73,2.59,,,0.36,WUHU216HW,2013-06-24 05:35:00,
2013-06-24 01:40:00,73.3,64.2,30.00,SE,135,0.7,1.6,73,2.59,,,0.36,WUHU216HW,2013-06-24 05:40:00,
2013-06-24 01:45:00,73.3,64.2,30.00,SE,135,0.7,1.6,73,2.59,,,0.36,WUHU216HW,2013-06-24 05:45:00,
2013-06-24 02:00:00,72.9,64.2,30.00,South,180,1.1,1.1,74,2.59,,,0.36,WUHU216HW,2013-06-24 06:00:00,
2013-06-24 02:05:00,72.7,64.0,30.00,SE,135,0.4,2.0,74,2.59,,,0.54,WUHU216HW,2013-06-24 06:05:00,
2013-06-24 02:10:00,72.7,64.0,30.00,SSW,203,0.9,2.0,74,2.59,,,0.54,WUHU216HW,2013-06-24 06:10:00,
2013-06-24 02:35:00,72.4,64.0,29.99,WNW,293,1.1,1.1,75,2.59,,,0.54,WUHU216HW,2013-06-24 06:35:00,
2013-06-24 02:41:00,72.4,64.0,29.99,West,270,0.4,2.0,75,2.59,,,0.54,WUHU216HW,2013-06-24 06:41:00,
2013-06-24 02:44:00,72.4,64.0,29.99,NW,315,0.9,0.9,75,2.59,,,0.54,WUHU216HW,2013-06-24 06:44:00,
2013-06-24 02:46:00,72.4,64.0,29.99,NW,315,0.9,2.0,75,2.59,,,0.54,WUHU216HW,2013-06-24 06:46:00,
2013-06-24 02:51:00,72.4,64.0,29.99,NW,315,0.9,0.9,75,2.59,,,0.54,WUHU216HW,2013-06-24 06:51:00,
2013-06-24 03:00:00,72.0,63.6,29.99,WNW,293,0.0,0.0,75,2.59,,,0.54,WUHU216HW,2013-06-24 07:00:00,
2013-06-24 03:02:00,72.0,63.6,29.99,West,270,0.0,0.0,75,2.59,,,0.73,WUHU216HW,2013-06-24 07:02:00,
2013-06-24 03:05:00,72.0,63.6,29.99,West,270,0.0,0.0,75,2.59,,,0.73,WUHU216HW,2013-06-24 07:05:00,
2013-06-24 03:10:00,72.0,63.6,29.99,West,270,0.0,0.0,75,2.59,,,0.73,WUHU216HW,2013-06-24 07:10:00,
2013-06-24 03:32:00,71.6,63.6,30.00,West,270,0.0,0.0,76,2.59,,,0.73,WUHU216HW,2013-06-24 07:32:00,
2013-06-24 03:37:00,71.6,63.6,30.00,WSW,248,0.9,1.1,76,2.59,,,0.73,WUHU216HW,2013-06-24 07:37:00,
2013-06-24 03:38:00,71.6,63.6,29.99,WSW,248,0.0,0.0,76,2.59,,,0.73,WUHU216HW,2013-06-24 07:38:00,
2013-06-24 03:43:00,71.6,63.6,29.99,WSW,248,0.0,1.1,76,2.59,,,0.73,WUHU216HW,2013-06-24 07:43:00,
2013-06-24 03:48:00,71.6,63.6,29.99,WSW,248,0.0,0.0,76,2.59,,,0.73,WUHU216HW,2013-06-24 07:48:00,
2013-06-24 04:00:00,71.6,64.0,30.00,NW,315,3.1,3.1,77,2.59,,,0.73,WUHU216HW,2013-06-24 08:00:00,
2013-06-24 04:05:00,71.6,64.0,30.00,NW,315,3.4,3.4,77,2.59,,,0.91,WUHU216HW,2013-06-24 08:05:00,
2013-06-24 04:30:00,74.5,66.1,30.00,WNW,293,4.7,4.7,75,2.59,,,0.91,WUHU216HW,2013-06-24 08:30:00,
2013-06-24 04:31:00,74.5,66.1,30.00,West,270,3.6,3.6,75,2.59,,,0.91,WUHU216HW,2013-06-24 08:31:00,
2013-06-24 04:35:00,74.5,66.1,30.00,West,270,3.6,4.7,75,2.59,,,0.91,WUHU216HW,2013-06-24 08:35:00,
2013-06-24 04:41:00,74.5,66.1,30.00,West,270,3.6,4.0,75,2.59,,,0.91,WUHU216HW,2013-06-24 08:41:00,
2013-06-24 05:00:00,74.9,66.1,30.00,WNW,293,3.4,3.4,74,2.59,,,0.91,WUHU216HW,2013-06-24 09:00:00,
2013-06-24 05:05:00,74.9,66.1,30.00,WNW,293,3.4,3.4,74,2.59,,,0.91,WUHU216HW,2013-06-24 09:05:00,
2013-06-24 05:30:00,74.9,66.1,30.01,West,270,3.1,3.1,74,2.59,,,0.91,WUHU216HW,2013-06-24 09:30:00,
2013-06-24 05:32:00,74.7,65.9,30.01,WNW,293,3.4,3.4,74,2.59,,,1.09,WUHU216HW,2013-06-24 09:32:00,
2013-06-24 05:35:00,74.7,65.9,30.01,WNW,293,3.4,4.0,74,2.59,,,1.09,WUHU216HW,2013-06-24 09:35:00,
2013-06-24 05:40:00,74.7,65.9,30.01,WNW,293,3.4,4.0,74,2.59,,,1.09,WUHU216HW,2013-06-24 09:40:00,
2013-06-24 06:00:00,74.2,65.8,30.01,NW,315,2.7,2.7,75,2.59,,,1.09,WUHU216HW,2013-06-24 10:00:00,
2013-06-24 06:05:00,74.2,65.8,30.01,NW,315,2.7,2.7,75,2.59,,,1.09,WUHU216HW,2013-06-24 10:05:00,
2013-06-24 06:30:00,73.6,66.0,30.02,NNW,338,4.9,4.9,77,2.59,,,1.09,WUHU216HW,2013-06-24 10:30:00,
2013-06-24 06:35:00,73.8,66.2,30.02,NNW,338,4.3,4.9,77,2.59,,,1.28,WUHU216HW,2013-06-24 10:35:00,
2013-06-24 07:00:00,74.9,66.1,30.02,NW,315,9.4,9.4,74,2.59,,,1.28,WUHU216HW,2013-06-24 11:00:00,
2013-06-24 07:05:00,74.9,66.1,30.02,NW,315,9.4,13.2,74,2.59,,,1.46,WUHU216HW,2013-06-24 11:05:00,
2013-06-24 07:10:00,74.9,65.6,30.03,WNW,293,12.3,16.1,73,2.59,,,1.46,WUHU216HW,2013-06-24 11:10:00,
2013-06-24 07:15:00,74.9,66.1,30.02,NW,315,14.5,16.1,74,2.59,,,1.46,WUHU216HW,2013-06-24 11:15:00,
2013-06-24 07:20:00,74.7,65.9,30.02,NW,315,15.0,15.0,74,2.59,,,1.46,WUHU216HW,2013-06-24 11:20:00,
2013-06-24 07:24:00,74.7,65.9,30.02,NW,315,8.9,8.9,74,2.59,,,1.46,WUHU216HW,2013-06-24 11:24:00,
2013-06-24 07:25:00,74.7,65.9,30.02,NW,315,8.9,15.0,74,2.59,,,1.46,WUHU216HW,2013-06-24 11:25:00,
2013-06-24 07:30:00,74.7,65.9,30.02,NW,315,8.9,10.3,74,2.59,,,1.46,WUHU216HW,2013-06-24 11:30:00,
2013-06-24 07:54:00,75.2,65.6,30.03,NW,315,7.8,7.8,72,2.59,,,1.46,WUHU216HW,2013-06-24 11:54:00,
2013-06-24 08:01:00,75.2,65.2,30.03,SW,225,5.8,12.1,71,2.59,,,1.46,WUHU216HW,2013-06-24 12:01:00,
2013-06-24 08:06:00,75.6,66.0,30.03,NNW,338,6.3,9.8,72,2.59,,,1.64,WUHU216HW,2013-06-24 12:06:00,
2013-06-24 08:11:00,75.8,65.7,30.03,NW,315,4.3,9.8,71,2.59,,,1.64,WUHU216HW,2013-06-24 12:11:00,
2013-06-24 08:16:00,76.0,65.9,30.02,WNW,293,6.9,8.7,71,2.59,,,1.64,WUHU216HW,2013-06-24 12:16:00,
2013-06-24 08:21:00,76.1,66.1,30.02,North,0,4.0,11.2,71,2.59,,,1.64,WUHU216HW,2013-06-24 12:21:00,
2013-06-24 08:26:00,76.3,65.9,30.02,NW,315,8.9,9.6,70,2.59,,,1.64,WUHU216HW,2013-06-24 12:26:00,
2013-06-24 08:27:00,76.3,65.9,30.02,NW,315,8.9,12.5,70,2.59,,,1.64,WUHU216HW,2013-06-24 12:27:00,
2013-06-24 08:32:00,76.3,65.9,30.02,NW,315,8.9,12.5,70,2.59,,,1.64,WUHU216HW,2013-06-24 12:32:00,
2013-06-24 08:56:00,76.5,66.4,30.02,WNW,293,9.8,9.8,71,2.59,,,1.64,WUHU216HW,2013-06-24 12:56:00,
2013-06-24 09:01:00,76.5,66.4,30.02,West,270,10.3,13.4,71,2.59,,,1.82,WUHU216HW,2013-06-24 13:01:00,
2013-06-24 09:07:00,76.5,66.4,30.02,WNW,293,5.1,13.4,71,2.59,,,1.82,WUHU216HW,2013-06-24 13:07:00,
2013-06-24 09:12:00,76.5,66.1,30.02,NNW,338,6.9,10.1,70,2.59,,,1.82,WUHU216HW,2013-06-24 13:12:00,
2013-06-24 09:17:00,76.3,65.9,30.02,West,270,6.9,9.4,70,2.59,,,1.82,WUHU216HW,2013-06-24 13:17:00,
2013-06-24 09:22:00,76.5,66.1,30.03,NW,315,7.8,11.2,70,2.59,,,1.82,WUHU216HW,2013-06-24 13:22:00,
2013-06-24 09:27:00,76.3,65.9,30.03,WNW,293,9.6,14.3,70,2.59,,,1.82,WUHU216HW,2013-06-24 13:27:00,
2013-06-24 09:32:00,76.5,66.1,30.03,WSW,248,10.7,14.3,70,2.59,,,1.82,WUHU216HW,2013-06-24 13:32:00,
2013-06-24 09:38:00,76.7,66.2,30.03,WNW,293,6.9,11.4,70,2.59,,,1.82,WUHU216HW,2013-06-24 13:38:00,
2013-06-24 09:43:00,76.7,65.8,30.03,NNW,338,7.2,12.8,69,2.59,,,1.82,WUHU216HW,2013-06-24 13:43:00,
2013-06-24 09:48:00,77.0,66.2,30.03,WNW,293,7.2,12.8,69,2.59,,,1.82,WUHU216HW,2013-06-24 13:48:00,
2013-06-24 09:53:00,77.4,66.5,30.03,West,270,8.3,9.8,69,2.59,,,1.82,WUHU216HW,2013-06-24 13:53:00,
2013-06-24 09:58:00,77.6,66.3,30.03,NW,315,8.5,9.8,68,2.59,,,1.82,WUHU216HW,2013-06-24 13:58:00,
2013-06-24 10:04:00,78.1,65.8,30.02,WNW,293,9.6,13.2,66,2.59,,,2.00,WUHU216HW,2013-06-24 14:04:00,
2013-06-24 10:07:00,78.1,65.8,30.02,NW,315,9.8,11.4,66,2.59,,,2.00,WUHU216HW,2013-06-24 14:07:00,
2013-06-24 10:09:00,78.1,65.8,30.02,NW,315,9.8,15.7,66,2.59,,,2.00,WUHU216HW,2013-06-24 14:09:00,
2013-06-24 10:14:00,78.1,65.8,30.02,NW,315,9.8,15.7,66,2.59,,,2.00,WUHU216HW,2013-06-24 14:14:00,
2013-06-24 10:37:00,80.1,66.3,30.02,NW,315,6.3,6.3,63,2.59,,,2.00,WUHU216HW,2013-06-24 14:37:00,
2013-06-24 10:42:00,80.1,66.3,30.02,WNW,293,5.6,10.5,63,2.59,,,2.00,WUHU216HW,2013-06-24 14:42:00,
2013-06-24 10:48:00,80.3,67.0,30.02,West,270,8.3,10.5,64,2.59,,,2.00,WUHU216HW,2013-06-24 14:48:00,
2013-06-24 10:53:00,80.6,66.9,30.02,West,270,8.5,10.1,63,2.59,,,2.00,WUHU216HW,2013-06-24 14:53:00,
2013-06-24 10:58:00,80.5,66.7,30.02,NW,315,9.6,12.8,63,2.59,,,2.00,WUHU216HW,2013-06-24 14:58:00,
2013-06-24 11:03:00,80.3,66.5,30.02,NNW,338,6.7,14.1,63,2.59,,,2.19,WUHU216HW,2013-06-24 15:03:00,
2013-06-24 11:08:00,80.1,66.3,30.02,NW,315,6.5,14.1,63,2.59,,,2.19,WUHU216HW,2013-06-24 15:08:00,
2013-06-24 11:13:00,79.9,66.3,30.02,WSW,248,9.8,12.1,63,2.59,,,2.19,WUHU216HW,2013-06-24 15:13:00,
2013-06-24 11:18:00,79.9,66.3,30.02,WSW,248,9.8,9.8,63,2.59,,,2.19,WUHU216HW,2013-06-24 15:18:00,
2013-06-24 11:38:00,77.8,65.9,30.04,NNW,338,13.9,13.9,67,2.59,,,2.19,WUHU216HW,2013-06-24 15:38:00,
2013-06-24 11:43:00,77.4,66.1,30.03,WNW,293,13.0,16.6,68,2.59,,,2.19,WUHU216HW,2013-06-24 15:43:00,
2013-06-24 11:49:00,77.9,66.5,30.03,West,270,12.1,16.6,68,2.59,,,2.19,WUHU216HW,2013-06-24 15:49:00,
2013-06-24 11:54:00,78.1,65.8,30.03,North,0,15.2,20.8,66,2.59,,,2.19,WUHU216HW,2013-06-24 15:54:00,
2013-06-24 11:59:00,78.5,66.2,30.03,NNW,338,15.4,20.8,66,2.59,,,2.19,WUHU216HW,2013-06-24 15:59:00,
2013-06-24 12:04:00,78.5,66.2,30.03,NW,315,12.3,17.9,66,2.59,,,2.37,WUHU216HW,2013-06-24 16:04:00,
2013-06-24 12:09:00,78.5,66.2,30.03,WSW,248,11.4,17.9,66,2.59,,,2.37,WUHU216HW,2013-06-24 16:09:00,
2013-06-24 12:14:00,78.5,66.2,30.04,North,0,16.3,16.3,66,2.59,,,2.37,WUHU216HW,2013-06-24 16:14:00,
2013-06-24 12:19:00,78.3,66.4,30.04,NW,315,10.5,16.3,67,2.59,,,2.37,WUHU216HW,2013-06-24 16:19:00,
2013-06-24 12:24:00,78.5,66.6,30.04,NW,315,12.1,16.1,67,2.59,,,2.37,WUHU216HW,2013-06-24 16:24:00,
2013-06-24 12:29:00,78.5,66.6,30.03,NW,315,11.4,16.1,67,2.59,,,2.37,WUHU216HW,2013-06-24 16:29:00,
2013-06-24 12:34:00,78.5,66.6,30.03,NW,315,13.4,15.9,67,2.59,,,2.37,WUHU216HW,2013-06-24 16:34:00,
2013-06-24 12:39:00,78.7,67.6,30.03,NW,315,8.9,11.4,69,2.59,,,2.37,WUHU216HW,2013-06-24 16:39:00,
2013-06-24 12:40:00,78.7,67.6,30.03,NW,315,11.4,17.9,69,2.59,,,2.37,WUHU216HW,2013-06-24 16:40:00,
2013-06-24 12:45:00,78.7,67.6,30.03,NW,315,8.9,17.9,69,2.59,,,2.37,WUHU216HW,2013-06-24 16:45:00,
2013-06-24 13:00:00,79.9,67.5,30.03,NW,315,11.4,11.4,66,0.00,,,2.37,WUHU216HW,2013-06-24 17:00:00,
2013-06-24 13:05:00,80.1,66.8,30.03,NNW,338,9.8,18.3,64,2.59,,,2.56,WUHU216HW,2013-06-24 17:05:00,
2013-06-24 13:11:00,80.3,66.5,30.03,NNW,338,16.6,20.6,63,2.59,,,2.56,WUHU216HW,2013-06-24 17:11:00,
2013-06-24 13:16:00,80.3,67.4,30.04,NW,315,10.5,20.6,65,2.59,,,2.56,WUHU216HW,2013-06-24 17:16:00,
2013-06-24 13:21:00,80.5,67.6,30.03,NW,315,11.0,16.1,65,2.59,,,2.56,WUHU216HW,2013-06-24 17:21:00,
2013-06-24 13:26:00,80.3,67.0,30.03,NW,315,9.8,18.1,64,2.59,,,2.56,WUHU216HW,2013-06-24 17:26:00,
2013-06-24 13:31:00,80.6,67.8,30.04,NW,315,9.2,18.1,65,2.59,,,2.56,WUHU216HW,2013-06-24 17:31:00,
2013-06-24 13:36:00,81.0,67.7,30.03,NW,315,12.8,13.2,64,2.59,,,2.56,WUHU216HW,2013-06-24 17:36:00,
2013-06-24 13:41:00,81.0,67.7,30.03,NW,315,5.4,14.8,64,2.59,,,2.56,WUHU216HW,2013-06-24 17:41:00,
2013-06-24 13:46:00,81.4,68.4,30.03,NW,315,9.6,14.8,65,2.59,,,2.56,WUHU216HW,2013-06-24 17:46:00,
2013-06-24 13:47:00,81.2,68.2,30.03,WSW,248,7.8,7.8,65,2.59,,,2.56,WUHU216HW,2013-06-24 17:47:00,
2013-06-24 13:52:00,81.2,68.2,30.03,WSW,248,7.8,13.4,65,2.59,,,2.56,WUHU216HW,2013-06-24 17:52:00,
2013-06-24 13:57:00,81.2,68.2,30.03,WSW,248,7.8,7.8,65,2.59,,,2.56,WUHU216HW,2013-06-24 17:57:00,
2013-06-24 14:02:00,81.0,67.2,30.03,NW,315,16.1,16.1,63,2.59,,,2.74,WUHU216HW,2013-06-24 18:02:00,
2013-06-24 14:04:00,81.0,67.7,30.03,West,270,9.2,9.2,64,2.59,,,2.74,WUHU216HW,2013-06-24 18:04:00,
2013-06-24 14:07:00,81.0,67.7,30.03,West,270,9.2,16.1,64,2.59,,,2.74,WUHU216HW,2013-06-24 18:07:00,
2013-06-24 14:12:00,81.0,67.7,30.03,West,270,9.2,16.1,64,2.59,,,2.74,WUHU216HW,2013-06-24 18:12:00,
2013-06-24 14:34:00,81.9,66.7,30.01,WNW,293,15.2,15.2,60,2.59,,,2.74,WUHU216HW,2013-06-24 18:34:00,
2013-06-24 14:39:00,81.7,66.5,30.01,West,270,14.1,15.2,60,2.59,,,2.74,WUHU216HW,2013-06-24 18:39:00,
2013-06-24 14:43:00,81.5,65.8,30.01,West,270,13.4,14.3,59,2.59,,,2.74,WUHU216HW,2013-06-24 18:43:00,
2013-06-24 14:45:00,81.5,65.8,30.01,West,270,13.4,23.0,59,2.59,,,2.74,WUHU216HW,2013-06-24 18:45:00,
2013-06-24 14:50:00,81.5,65.8,30.01,West,270,13.4,23.0,59,2.59,,,2.74,WUHU216HW,2013-06-24 18:50:00,
2013-06-24 15:00:00,82.3,65.4,29.99,NW,315,14.3,14.3,57,2.59,,,2.74,WUHU216HW,2013-06-24 19:00:00,
2013-06-24 15:05:00,82.1,65.8,29.99,NW,315,12.1,16.3,58,2.59,,,2.92,WUHU216HW,2013-06-24 19:05:00,
2013-06-24 15:10:00,82.3,65.4,29.99,WSW,248,8.3,19.7,57,2.59,,,2.92,WUHU216HW,2013-06-24 19:10:00,
2013-06-24 15:15:00,82.3,66.0,29.99,WNW,293,16.3,19.7,58,2.59,,,2.92,WUHU216HW,2013-06-24 19:15:00,
2013-06-24 15:20:00,82.4,66.1,29.99,WNW,293,10.5,18.6,58,2.59,,,2.92,WUHU216HW,2013-06-24 19:20:00,
2013-06-24 15:25:00,82.4,66.1,29.99,WNW,293,10.5,10.5,58,2.59,,,2.92,WUHU216HW,2013-06-24 19:25:00,
2013-06-24 16:53:00,82.4,66.6,29.96,WNW,293,17.4,17.4,59,2.59,,,2.92,WUHU216HW,2013-06-24 20:53:00,
2013-06-24 16:58:00,82.4,66.6,29.95,WNW,293,12.1,17.4,59,2.59,,,3.10,WUHU216HW,2013-06-24 20:58:00,
2013-06-24 17:03:00,82.6,66.2,29.95,NW,315,13.0,17.4,58,2.59,,,3.28,WUHU216HW,2013-06-24 21:03:00,
2013-06-24 17:08:00,83.0,66.6,29.95,NW,315,12.8,18.1,58,2.59,,,3.28,WUHU216HW,2013-06-24 21:08:00,
2013-06-24 17:13:00,83.3,66.5,29.96,NNW,338,16.8,18.1,57,2.59,,,3.28,WUHU216HW,2013-06-24 21:13:00,
2013-06-24 17:18:00,83.2,66.8,29.95,NW,315,7.8,16.8,58,2.59,,,3.28,WUHU216HW,2013-06-24 21:18:00,
2013-06-24 17:24:00,82.4,66.6,29.95,WNW,293,8.9,19.9,59,2.59,,,3.28,WUHU216HW,2013-06-24 21:24:00,
2013-06-24 17:29:00,82.3,66.4,29.94,West,270,9.8,19.9,59,2.59,,,3.28,WUHU216HW,2013-06-24 21:29:00,
2013-06-24 17:35:00,82.4,66.6,29.94,West,270,6.3,16.3,59,2.59,,,3.28,WUHU216HW,2013-06-24 21:35:00,
2013-06-24 17:40:00,83.0,67.1,29.94,West,270,8.3,14.5,59,2.59,,,3.28,WUHU216HW,2013-06-24 21:40:00,
2013-06-24 17:45:00,83.0,66.2,29.94,NW,315,12.1,14.1,57,2.59,,,3.28,WUHU216HW,2013-06-24 21:45:00,
2013-06-24 17:50:00,82.6,66.2,29.94,NW,315,4.7,13.4,58,2.59,,,3.28,WUHU216HW,2013-06-24 21:50:00,
2013-06-24 17:55:00,83.2,66.8,29.94,NW,315,6.3,13.4,58,2.59,,,3.28,WUHU216HW,2013-06-24 21:55:00,
2013-06-24 18:00:00,83.0,66.2,29.93,WNW,293,10.3,13.4,57,2.59,,,3.28,WUHU216HW,2013-06-24 22:00:00,
2013-06-24 18:05:00,82.6,65.8,29.94,WNW,293,13.9,15.0,57,2.59,,,3.47,WUHU216HW,2013-06-24 22:05:00,
2013-06-24 18:10:00,82.8,66.0,29.93,NW,315,13.4,15.0,57,2.59,,,3.47,WUHU216HW,2013-06-24 22:10:00,
2013-06-24 18:15:00,83.2,66.3,29.93,NW,315,9.2,14.8,57,2.59,,,3.47,WUHU216HW,2013-06-24 22:15:00,
2013-06-24 18:21:00,83.5,66.7,29.93,NW,315,11.0,13.4,57,2.59,,,3.47,WUHU216HW,2013-06-24 22:21:00,
2013-06-24 18:26:00,83.5,65.6,29.92,WNW,293,6.9,12.8,55,2.59,,,3.47,WUHU216HW,2013-06-24 22:26:00,
2013-06-24 18:31:00,83.5,65.1,29.92,West,270,7.6,12.8,54,2.59,,,3.47,WUHU216HW,2013-06-24 22:31:00,
2013-06-24 18:36:00,83.5,65.1,29.92,WNW,293,13.9,13.9,54,2.59,,,3.47,WUHU216HW,2013-06-24 22:36:00,
2013-06-24 18:41:00,83.3,63.9,29.92,NW,315,8.5,13.9,52,2.59,,,3.47,WUHU216HW,2013-06-24 22:41:00,
2013-06-24 18:47:00,83.7,64.3,29.92,NW,315,10.5,13.9,52,2.59,,,3.47,WUHU216HW,2013-06-24 22:47:00,
2013-06-24 18:52:00,83.5,64.1,29.93,WNW,293,5.4,17.2,52,2.59,,,3.47,WUHU216HW,2013-06-24 22:52:00,
2013-06-24 18:57:00,83.5,64.1,29.93,WNW,293,12.3,17.2,52,2.59,,,3.47,WUHU216HW,2013-06-24 22:57:00,
2013-06-24 19:02:00,83.3,63.9,29.93,West,270,13.2,15.9,52,2.59,,,3.65,WUHU216HW,2013-06-24 23:02:00,
2013-06-24 19:07:00,83.2,64.2,29.94,WSW,248,10.1,15.9,53,2.59,,,3.65,WUHU216HW,2013-06-24 23:07:00,
2013-06-24 19:12:00,83.2,63.7,29.93,NW,315,8.7,13.2,52,2.59,,,3.65,WUHU216HW,2013-06-24 23:12:00,
2013-06-24 19:17:00,83.2,63.2,29.93,NNW,338,6.0,11.9,51,2.59,,,3.65,WUHU216HW,2013-06-24 23:17:00,
2013-06-24 19:22:00,83.3,62.8,29.93,NW,315,10.3,14.8,50,2.59,,,3.65,WUHU216HW,2013-06-24 23:22:00,
2013-06-24 19:27:00,83.3,62.8,29.93,NW,315,5.1,14.8,50,2.59,,,3.65,WUHU216HW,2013-06-24 23:27:00,
2013-06-24 19:33:00,83.5,63.0,29.93,WNW,293,3.4,13.0,50,2.59,,,3.65,WUHU216HW,2013-06-24 23:33:00,
2013-06-24 19:38:00,83.7,63.2,29.93,WNW,293,5.6,10.7,50,2.59,,,3.65,WUHU216HW,2013-06-24 23:38:00,
2013-06-24 19:44:00,83.3,62.8,29.93,NW,315,4.0,10.3,50,2.59,,,3.65,WUHU216HW,2013-06-24 23:44:00,
2013-06-24 19:49:00,83.2,63.2,29.92,WNW,293,4.7,10.3,51,2.59,,,3.65,WUHU216HW,2013-06-24 23:49:00,
2013-06-24 19:54:00,83.3,63.4,29.93,NNW,338,5.4,7.8,51,2.59,,,3.65,WUHU216HW,2013-06-24 23:54:00,
2013-06-24 19:59:00,83.2,62.6,29.93,WNW,293,5.8,9.6,50,2.59,,,3.65,WUHU216HW,2013-06-24 23:59:00,
2013-06-24 20:04:00,83.0,63.0,29.93,NW,315,4.7,9.6,51,2.59,,,3.84,WUHU216HW,2013-06-25 00:04:00,
2013-06-24 20:09:00,82.8,62.8,29.93,NW,315,5.1,7.8,51,2.59,,,3.84,WUHU216HW,2013-06-25 00:09:00,
2013-06-24 20:14:00,82.3,62.8,29.93,NNW,338,6.9,7.6,52,2.59,,,3.84,WUHU216HW,2013-06-25 00:14:00,
2013-06-24 20:19:00,81.7,62.8,29.93,NW,315,5.8,8.1,53,2.59,,,3.84,WUHU216HW,2013-06-25 00:19:00,
2013-06-24 20:24:00,81.5,62.6,29.93,NW,315,4.7,8.1,53,2.59,,,3.84,WUHU216HW,2013-06-25 00:24:00,
2013-06-24 20:29:00,81.0,62.7,29.93,NW,315,3.1,6.9,54,2.59,,,3.84,WUHU216HW,2013-06-25 00:29:00,
2013-06-24 20:35:00,80.5,62.7,29.93,NW,315,4.0,6.3,55,2.59,,,3.84,WUHU216HW,2013-06-25 00:35:00,
2013-06-24 20:40:00,79.9,62.8,29.93,WNW,293,6.0,6.3,56,2.59,,,3.84,WUHU216HW,2013-06-25 00:40:00,
2013-06-24 20:45:00,79.6,63.0,29.93,NW,315,4.0,8.5,57,2.59,,,3.84,WUHU216HW,2013-06-25 00:45:00,
2013-06-24 20:50:00,79.4,62.8,29.93,WNW,293,3.1,8.5,57,2.59,,,3.84,WUHU216HW,2013-06-25 00:50:00,
2013-06-24 20:55:00,79.2,63.2,29.93,NW,315,4.7,6.0,58,2.59,,,3.84,WUHU216HW,2013-06-25 00:55:00,
2013-06-24 21:00:00,79.0,63.0,29.93,West,270,4.3,5.4,58,2.59,,,4.02,WUHU216HW,2013-06-25 01:00:00,
2013-06-24 21:05:00,78.8,63.4,29.93,NW,315,3.4,5.4,59,2.59,,,4.02,WUHU216HW,2013-06-25 01:05:00,
2013-06-24 21:10:00,78.5,63.0,29.93,WNW,293,3.4,5.6,59,2.59,,,4.02,WUHU216HW,2013-06-25 01:10:00,
2013-06-24 21:16:00,78.1,63.2,29.94,West,270,3.4,5.6,60,2.59,,,4.02,WUHU216HW,2013-06-25 01:16:00,
2013-06-24 21:21:00,77.9,63.0,29.94,West,270,3.4,5.1,60,2.59,,,4.02,WUHU216HW,2013-06-25 01:21:00,
2013-06-24 21:26:00,77.8,63.3,29.93,WNW,293,4.5,5.1,61,2.59,,,4.02,WUHU216HW,2013-06-25 01:26:00,
2013-06-24 21:31:00,77.6,63.1,29.94,West,270,3.4,5.1,61,2.59,,,4.02,WUHU216HW,2013-06-25 01:31:00,
2013-06-24 21:36:00,77.4,62.9,29.94,WNW,293,2.0,4.0,61,2.59,,,4.02,WUHU216HW,2013-06-25 01:36:00,
2013-06-24 21:41:00,77.2,63.2,29.94,West,270,4.9,5.4,62,2.59,,,4.02,WUHU216HW,2013-06-25 01:41:00,
2013-06-24 21:47:00,77.0,63.0,29.94,WSW,248,4.0,5.4,62,2.59,,,4.02,WUHU216HW,2013-06-25 01:47:00,
2013-06-24 21:52:00,76.9,62.8,29.94,West,270,1.8,5.4,62,2.59,,,4.02,WUHU216HW,2013-06-25 01:52:00,
2013-06-24 21:57:00,76.7,62.6,29.95,NW,315,1.8,4.7,62,2.59,,,4.02,WUHU216HW,2013-06-25 01:57:00,
2013-06-24 22:02:00,76.5,62.9,29.95,NW,315,2.5,4.0,63,2.59,,,4.20,WUHU216HW,2013-06-25 02:02:00,
2013-06-24 22:07:00,76.3,62.8,29.95,WSW,248,1.6,4.0,63,2.59,,,4.20,WUHU216HW,2013-06-25 02:07:00,
2013-06-24 22:13:00,76.3,62.8,29.95,WSW,248,1.6,3.4,63,2.59,,,4.20,WUHU216HW,2013-06-25 02:13:00,
2013-06-24 22:18:00,76.1,63.1,29.94,South,180,1.1,3.4,64,2.59,,,4.20,WUHU216HW,2013-06-25 02:18:00,
2013-06-24 22:23:00,76.0,62.9,29.94,WNW,293,2.7,3.1,64,2.59,,,4.20,WUHU216HW,2013-06-25 02:23:00,
2013-06-24 22:28:00,76.0,62.9,29.95,West,270,1.8,2.7,64,2.59,,,4.20,WUHU216HW,2013-06-25 02:28:00,
2013-06-24 22:33:00,75.6,63.0,29.94,NW,315,1.8,2.5,65,2.59,,,4.20,WUHU216HW,2013-06-25 02:33:00,
2013-06-24 22:38:00,75.4,62.8,29.94,NW,315,0.9,2.2,65,2.59,,,4.20,WUHU216HW,2013-06-25 02:38:00,
2013-06-24 22:43:00,75.2,63.1,29.94,WNW,293,1.6,2.0,66,2.59,,,4.20,WUHU216HW,2013-06-25 02:43:00,
2013-06-24 22:48:00,75.2,63.1,29.94,WNW,293,2.5,2.5,66,2.59,,,4.20,WUHU216HW,2013-06-25 02:48:00,
2013-06-24 22:54:00,74.9,62.7,29.94,WNW,293,1.8,2.5,66,2.59,,,4.20,WUHU216HW,2013-06-25 02:54:00,
2013-06-24 22:59:00,74.7,62.6,29.94,West,270,1.8,2.5,66,2.59,,,4.20,WUHU216HW,2013-06-25 02:59:00,
2013-06-24 23:04:00,74.5,62.8,29.94,West,270,1.1,1.8,67,2.59,,,4.38,WUHU216HW,2013-06-25 03:04:00,
2013-06-24 23:09:00,74.5,62.8,29.94,WSW,248,1.1,1.8,67,2.59,,,4.38,WUHU216HW,2013-06-25 03:09:00,
2013-06-24 23:14:00,74.5,62.8,29.94,WSW,248,0.7,1.8,67,2.59,,,4.38,WUHU216HW,2013-06-25 03:14:00,
2013-06-24 23:19:00,74.3,62.6,29.94,West,270,1.6,2.5,67,2.59,,,4.38,WUHU216HW,2013-06-25 03:19:00,
2013-06-24 23:25:00,74.3,63.1,29.94,WNW,293,1.1,2.5,68,2.59,,,4.38,WUHU216HW,2013-06-25 03:25:00,
2013-06-24 23:30:00,74.2,62.9,29.94,West,270,1.8,2.2,68,2.59,,,4.38,WUHU216HW,2013-06-25 03:30:00,
2013-06-24 23:35:00,74.0,62.8,29.93,West,270,0.7,2.2,68,2.59,,,4.38,WUHU216HW,2013-06-25 03:35:00,
2013-06-24 23:40:00,74.0,63.2,29.93,West,270,1.1,1.8,69,2.59,,,4.38,WUHU216HW,2013-06-25 03:40:00,
2013-06-24 23:45:00,73.8,63.1,29.93,WNW,293,1.8,1.8,69,2.59,,,4.38,WUHU216HW,2013-06-25 03:45:00,
2013-06-24 23:51:00,73.8,63.1,29.93,West,270,0.7,1.8,69,2.59,,,4.38,WUHU216HW,2013-06-25 03:51:00,
2013-06-24 23:57:00,73.8,63.1,29.93,WSW,248,1.1,1.8,69,2.59,,,4.38,WUHU216HW,2013-06-25 03:57:00,